Weather Roundup
Issued by NWS Chicago, IL

Home | Current Version | Previous Version | Text Only | Print | Product List | Glossary On
Versions: 1 2 3 4 5 6 7 8 9 10 11 12 13 14 15 16 17 18 19 20 21 22 23 24 25 26 27 28 29 30 31 32 33 34 35 36 37 38 39 40 41 42 43 44 45 46 47 48 49 50
000
NZUS59 KLOT 030010
HRRLOT

CHICAGO AREA WEATHER ROUNDUP
NATIONAL WEATHER SERVICE CHICAGO/ROMEOVILLE IL
700 PM CDT TUE SEP 02 2014

NOTE: "FAIR" INDICATES FEW OR NO CLOUDS BELOW 12,000 FEET WITH NO
SIGNIFICANT WEATHER AND/OR OBSTRUCTIONS TO VISIBILITY.

* THESE STATIONS ARE NOT UNDER NWS QUALITY CONTROL. THEY ALSO MAY NOT
  REPORT WEATHER SUCH AS PRECIPITATION OR FOG.

ILZ005-006-012>014-019>023-030100-
NORTHEAST ILLINOIS

CITY           SKY/WX    TMP DP  RH WIND       PRES   REMARKS
OHARE          PTCLDY    76  56  49 W7        29.89S
6HR MIN TEMP:  76; 6HR MAX TEMP:  82;

MIDWAY         PTCLDY    80  56  43 W9        29.89S HX  80
6HR MIN TEMP:  80; 6HR MAX TEMP:  85;

AURORA         PTCLDY    74  62  66 W3        29.90F
6HR MIN TEMP:  74; 6HR MAX TEMP:  81;

LANSING*         N/A    N/A N/A N/A MISG        N/A
JOLIET*        CLEAR     77  57  50 W5        29.91S
WAUKEGAN       PTCLDY    74  59  59 CALM      29.88S
6HR MIN TEMP:  74; 6HR MAX TEMP:  80;

DUPAGE AIRPORT MOCLDY    76  59  55 W6        29.90S
6HR MIN TEMP:  76; 6HR MAX TEMP:  82;

WHEELING       MOCLDY    79  57  46 W7        29.90S HX  80
6HR MIN TEMP:  79; 6HR MAX TEMP:  83;

KANKAKEE*      PTCLDY    75  65  70 W5        29.92R
MORRIS*        CLEAR     76  64  66 W3        29.91S
LEWIS AIRPORT* CLEAR     74  59  58 W5        29.90S
NORTHERLY IS     N/A     73  66  78 S5          N/A
$$

WIZ051-052-058>065-066-070>072-030100-
SOUTHEAST WISCONSIN

CITY           SKY/WX    TMP DP  RH WIND       PRES   REMARKS
MILWAUKEE      PTCLDY    76  56  49 NW7       29.88F
6HR MIN TEMP:  76; 6HR MAX TEMP:  80;

KENOSHA*       CLEAR     73  62  68 W5        29.89S
RACINE*        CLEAR     75  58  55 W5        29.90S
BURLINGTON     CLEAR     71  58  64 CALM      29.90R
WAUKESHA       CLEAR     72  57  60 W7        29.90F
WEST BEND      CLEAR     72  54  53 W5        29.88F
$$

INZ001>003-010>013-019-020-030100-
NORTHWEST INDIANA

CITY           SKY/WX    TMP DP  RH WIND       PRES   REMARKS
GARY*          PTCLDY    77  61  57 E5        29.90S
MICHIGAN CITY* NOT AVBL
RENSSELAER*    NOT AVBL
VALPARAISO     PTCLDY    76  65  68 CALM      29.91R
$$

LMZ740>746-030100-
SOUTHERN LAKE MICHIGAN

STATION/POSITION TIME  SKY/WX   TEMP WIND        PRES    VSBY
                                AIR  DIR/SP/G
                 (UTC)          (F)  (DEG/KT/KT) (MB)    (MI)
HARRISON CRIB    0000            74  120/  7/  8   N/A
BURNHAM HARBOR   0000            73  160/  5/  8   N/A
CALUMET HARBOR   0000            74  110/  5/  7 1011.2R
BURNS HARBOR     NOT AVBL
MICHIGAN CITY    0000            73   40/  6/  7   N/A
$$

ABBREVIATIONS USED IN REMARKS
   TC - TEMPERATURE IN CELSIUS
  WCI - WIND CHILL INDEX
   HX - HEAT INDEX
  VSB - VISIBILITY
$$


USA.gov is the U.S. government's official web portal to all federal, state and local government web resources and services.